FW0152 Weather Reports


Display with metric or nautical units.
time (UTC)temp
F
wind
direction
speed
MPH
gust
MPH
rain 1hr
in
rain 24hr
in
rain mn
in
humidity
%
barometer
mb
20260503013043 49 0 0.0 0.0 0.00 0.00 0.00 88 1010.6
20260503012526 49 0 0.0 0.0 0.00 0.00 0.00 88 1010.7
20260503012026 49 0 0.0 0.0 0.00 0.00 0.00 88 1010.9
20260503011543 49 0 0.0 0.0 0.00 0.00 0.00 88 1010.8
20260503011025 49 0 0.0 1.0 0.00 0.00 0.00 88 1010.6
20260503010527 49 0 0.0 1.0 0.00 0.00 0.00 88 1010.6
20260503010037 49 0 0.0 0.0 0.00 0.00 0.00 88 1010.6
20260503005528 49 0 0.0 0.0 0.00 0.00 0.00 88 1010.4
20260503005028 49 0 0.0 0.0 0.00 0.00 0.00 88 1010.5
20260503004540 49 0 0.0 0.0 0.00 0.00 0.00 88 1010.4
20260503004026 49 0 0.0 1.0 0.00 0.00 0.00 88 1010.4
20260503003527 49 0 0.0 1.0 0.00 0.00 0.00 88 1010.4
20260503003056 49 0 0.0 1.0 0.00 0.00 0.00 87 1010.3
20260503002526 49 0 0.0 2.0 0.00 0.00 0.00 87 1010.4
20260503002029 49 0 0.0 2.0 0.00 0.00 0.00 87 1010.4
20260503001542 49 0 0.0 2.0 0.00 0.00 0.00 87 1010.3
20260503001026 49 0 0.0 1.0 0.00 0.00 0.00 87 1010.3
20260503000529 49 0 0.0 1.0 0.00 0.00 0.00 87 1010.4
20260503000039 49 0 0.0 1.0 0.00 0.00 0.00 87 1010.3
20260502235525 49 0 0.0 1.0 0.00 0.00 0.00 87 1010.4
20260502235026 49 0 0.0 1.0 0.00 0.00 0.00 87 1010.4
20260502234535 49 0 0.0 1.0 0.00 0.00 0.00 87 1010.5
20260502234024 50 0 0.0 1.0 0.00 0.00 0.00 87 1010.4
20260502233525 50 0 0.0 0.0 0.00 0.00 0.00 86 1010.5
20260502233046 50 0 0.0 0.0 0.00 0.00 0.00 86 1010.5
20260502232524 50 0 0.0 0.0 0.00 0.00 0.00 86 1010.5
20260502232024 50 0 0.0 1.0 0.00 0.00 0.00 86 1010.6
20260502231558 50 0 0.0 1.0 0.00 0.00 0.00 86 1010.6
20260502231026 50 0 0.0 1.0 0.00 0.00 0.00 86 1010.5
20260502230528 50 0 0.0 0.0 0.00 0.00 0.00 86 1010.5
20260502230040 50 0 0.0 0.0 0.00 0.00 0.00 86 1010.5
20260502225525 50 0 0.0 1.0 0.00 0.00 0.00 86 1010.5
20260502225027 50 0 0.0 1.0 0.00 0.00 0.00 86 1010.7
20260502224538 50 0 0.0 1.0 0.00 0.00 0.00 86 1010.6
20260502224025 50 0 0.0 1.0 0.00 0.00 0.00 86 1010.7
20260502223525 50 0 0.0 2.0 0.00 0.00 0.00 86 1010.5
20260502223044 50 0 0.0 2.0 0.00 0.00 0.00 86 1010.6
20260502222523 50 168 0.0 2.0 0.00 0.00 0.00 86 1010.5
20260502222024 50 0 0.0 1.0 0.00 0.00 0.00 85 1010.5
20260502221555 50 0 0.0 2.0 0.00 0.00 0.00 85 1010.4
20260502221024 50 0 0.0 2.0 0.00 0.00 0.00 85 1010.5
20260502220526 50 0 0.0 1.0 0.00 0.00 0.00 85 1010.5
20260502220043 50 0 0.0 1.0 0.00 0.00 0.00 86 1010.3
20260502215527 50 0 0.0 1.0 0.00 0.00 0.00 86 1010.4
20260502215025 50 0 0.0 2.0 0.00 0.00 0.00 86 1010.4
20260502214538 50 0 0.0 2.0 0.00 0.00 0.00 86 1010.5
20260502214024 50 0 0.0 4.0 0.00 0.00 0.00 86 1010.3
20260502213524 50 0 0.0 4.0 0.00 0.00 0.00 85 1010.2
20260502213048 50 168 0.0 4.0 0.00 0.00 0.00 85 1010.2
20260502212524 50 0 0.0 4.0 0.00 0.00 0.00 85 1010.2
20260502212028 50 360 1.0 4.0 0.00 0.00 0.00 85 1010.2
20260502211545 50 360 0.0 3.0 0.00 0.00 0.00 85 1010.3
20260502211030 50 0 0.0 3.0 0.00 0.00 0.00 85 1010.2
20260502210525 50 159 0.0 2.0 0.00 0.00 0.00 85 1010.3
20260502210044 50 0 0.0 2.0 0.00 0.00 0.00 85 1010.3
20260502205528 50 0 0.0 1.0 0.00 0.00 0.00 85 1010.5
20260502205028 51 0 0.0 1.0 0.00 0.00 0.00 85 1010.5
20260502204547 50 0 0.0 1.0 0.00 0.00 0.00 85 1010.6
20260502204029 50 0 0.0 1.0 0.00 0.00 0.00 85 1010.6
20260502203528 50 0 0.0 3.0 0.00 0.00 0.00 85 1010.7
20260502203038 50 0 0.0 3.0 0.00 0.00 0.00 84 1010.7
20260502202523 50 360 0.0 3.0 0.00 0.00 0.00 85 1010.7
20260502202027 50 0 0.0 3.0 0.00 0.00 0.00 85 1010.7
20260502201537 50 0 0.0 2.0 0.00 0.00 0.00 86 1010.7
20260502201025 50 0 0.0 2.0 0.00 0.00 0.00 86 1010.7
20260502200528 50 0 0.0 2.0 0.00 0.00 0.00 86 1010.8
20260502200043 50 0 0.0 4.0 0.00 0.00 0.00 86 1010.9
20260502195525 50 0 0.0 4.0 0.00 0.00 0.00 86 1010.9
20260502195023 50 0 0.0 3.0 0.00 0.00 0.00 85 1010.8
20260502194539 50 360 0.0 3.0 0.00 0.00 0.00 85 1011.1
20260502194027 50 360 0.0 4.0 0.00 0.00 0.00 85 1011.0
20260502193526 50 360 1.0 4.0 0.00 0.00 0.00 85 1011.2
20260502193038 51 0 0.0 2.0 0.00 0.00 0.00 85 1011.1
20260502192526 51 360 0.0 3.0 0.00 0.00 0.00 85 1011.1
20260502192025 51 0 1.0 3.0 0.00 0.00 0.00 85 1011.1
20260502191538 51 360 1.0 4.0 0.00 0.00 0.00 84 1011.4
20260502191029 51 0 0.0 4.0 0.00 0.00 0.00 84 1011.3
20260502190527 51 0 1.0 4.0 0.00 0.00 0.00 83 1011.3
20260502190037 51 360 0.0 6.0 0.00 0.00 0.00 82 1011.3
20260502185525 51 0 2.0 6.0 0.00 0.00 0.00 81 1011.5
20260502185025 51 0 0.0 3.0 0.00 0.00 0.00 81 1011.5
20260502184542 51 0 0.0 3.0 0.00 0.00 0.00 81 1011.7
20260502184029 52 0 0.0 4.0 0.00 0.00 0.00 81 1011.6
20260502183526 51 0 0.0 4.0 0.00 0.00 0.00 80 1011.7
20260502183041 52 0 0.0 5.0 0.00 0.00 0.00 80 1011.7
20260502182529 52 360 2.0 5.0 0.00 0.00 0.00 78 1011.7
20260502182025 52 360 2.0 8.0 0.00 0.00 0.00 77 1011.6
20260502181538 52 99 0.0 8.0 0.00 0.00 0.00 77 1011.5
20260502181027 53 0 2.0 6.0 0.00 0.00 0.00 75 1011.6
20260502180525 53 110 1.0 6.0 0.00 0.00 0.00 73 1011.7
20260502164026 54 248 0.0 4.0 0.00 0.00 0.00 73 1012.0
20260502163526 54 360 1.0 3.0 0.00 0.00 0.00 73 1012.0
20260502163038 54 171 1.0 7.0 0.00 0.00 0.00 73 1011.9
20260502162528 54 0 1.0 7.0 0.00 0.00 0.00 74 1011.9
20260502162029 53 125 1.0 6.0 0.00 0.00 0.00 74 1011.9
20260502161539 53 142 2.0 7.0 0.00 0.00 0.00 80 1012.0
20260502161026 53 242 1.0 7.0 0.00 0.00 0.00 75 1011.8
20260502160529 53 186 1.0 5.0 0.00 0.00 0.00 77 1012.0
20260502152025 52 360 2.0 7.0 0.00 0.00 0.00 77 1012.3
20260502151542 52 170 2.0 7.0 0.00 0.00 0.00 77 1012.4
20260502151028 52 145 2.0 7.0 0.00 0.00 0.00 76 1012.4
20260502150525 53 194 1.0 6.0 0.00 0.00 0.00 75 1012.7
20260502130524 52 0 1.0 6.0 0.00 0.00 0.00 76 1012.9
20260502123527 51 0 1.0 3.0 0.00 0.00 0.00 79 1012.8
20260502123039 51 248 0.0 3.0 0.00 0.00 0.00 78 1013.0
20260502122525 51 297 0.0 3.0 0.00 0.00 0.00 78 1013.0
20260502122026 50 267 0.0 3.0 0.00 0.00 0.00 79 1012.9
20260502121545 50 0 0.0 2.0 0.00 0.00 0.00 79 1012.9
20260502121027 50 0 0.0 4.0 0.00 0.00 0.00 79 1012.8
20260502120526 50 198 0.0 4.0 0.00 0.00 0.00 79 1012.8
20260502115531 50 198 1.0 3.0 0.00 0.00 0.00 79 1012.7
20260502115027 50 0 0.0 3.0 0.00 0.00 0.00 80 1012.7
20260502114544 50 166 0.0 3.0 0.00 0.00 0.00 80 1012.6
20260502114027 49 147 0.0 3.0 0.00 0.00 0.00 81 1012.7
20260502113528 49 0 0.0 2.0 0.00 0.00 0.00 81 1012.6
20260502113042 49 0 0.0 4.0 0.00 0.00 0.00 81 1012.5
20260502112527 48 360 0.0 4.0 0.00 0.00 0.00 81 1012.7
20260502112031 48 0 0.0 3.0 0.00 0.00 0.00 81 1012.5
20260502111539 48 360 0.0 2.0 0.00 0.00 0.00 82 1012.4
20260502111026 48 360 0.0 2.0 0.00 0.00 0.00 81 1012.3
20260502110528 48 0 0.0 2.0 0.00 0.00 0.00 81 1012.3
20260502110041 47 0 0.0 2.0 0.00 0.00 0.00 82 1012.3
20260502105528 47 0 0.0 2.0 0.00 0.00 0.00 82 1012.3
20260502105028 47 13 0.0 2.0 0.00 0.00 0.00 82 1012.2
20260502104547 47 0 0.0 1.0 0.00 0.00 0.00 82 1012.4
20260502104027 47 0 0.0 1.0 0.00 0.00 0.00 81 1012.3
20260502103527 47 0 0.0 1.0 0.00 0.00 0.00 81 1012.3
20260502103037 46 0 0.0 0.0 0.00 0.00 0.00 81 1012.2
20260502102528 46 0 0.0 0.0 0.00 0.00 0.00 81 1011.9
20260502102028 46 0 0.0 0.0 0.00 0.00 0.00 81 1012.0
20260502101540 46 0 0.0 2.0 0.00 0.00 0.00 81 1012.1
20260502101030 46 0 0.0 2.0 0.00 0.00 0.00 80 1011.9
20260502100525 46 0 0.0 2.0 0.00 0.00 0.00 80 1011.9
20260502091026 45 0 0.0 1.0 0.00 0.00 0.00 79 1011.7
20260502090527 45 0 0.0 2.0 0.00 0.00 0.00 79 1011.7
20260502071026 47 0 0.0 1.0 0.00 0.00 0.00 72 1011.7
20260502070528 48 0 0.0 2.0 0.00 0.00 0.00 72 1011.7
20260502070041 48 40 0.0 2.0 0.00 0.00 0.00 72 1011.7
20260502065526 48 38 0.0 3.0 0.00 0.00 0.00 71 1011.7
20260502065032 48 0 0.0 3.0 0.00 0.00 0.00 71 1011.6
20260502064541 48 360 0.0 4.0 0.00 0.00 0.00 70 1011.6
20260502064027 49 360 0.0 4.0 0.00 0.00 0.00 70 1011.6
20260502063527 49 0 0.0 4.0 0.00 0.00 0.00 69 1011.8
20260502063037 49 360 0.0 3.0 0.00 0.00 0.00 69 1011.8
20260502062527 49 360 0.0 3.0 0.00 0.00 0.00 69 1011.9
20260502062029 49 221 0.0 3.0 0.00 0.00 0.00 68 1011.9
20260502061535 49 0 1.0 4.0 0.00 0.00 0.00 68 1012.0
20260502061026 49 0 1.0 6.0 0.00 0.00 0.00 68 1011.9
20260502060528 49 360 1.0 6.0 0.00 0.00 0.00 68 1012.0
20260502060042 49 0 2.0 6.0 0.00 0.00 0.00 69 1011.9
20260502055528 49 360 0.0 10.0 0.00 0.00 0.00 69 1011.9
20260502055027 49 360 0.0 10.0 0.00 0.00 0.00 69 1012.0
20260502054540 49 360 0.0 6.0 0.00 0.00 0.00 69 1012.0
20260502054025 49 0 2.0 6.0 0.00 0.00 0.00 69 1012.0
20260502053525 49 360 0.0 10.0 0.00 0.00 0.00 68 1012.1
20260502053038 49 360 2.0 10.0 0.00 0.00 0.00 68 1012.2
20260502052527 49 360 1.0 3.0 0.00 0.00 0.00 68 1012.2
20260502052028 49 360 0.0 3.0 0.00 0.00 0.00 67 1012.2
20260502051558 49 360 0.0 6.0 0.00 0.00 0.00 67 1012.2
20260502051027 49 222 0.0 7.0 0.00 0.00 0.00 67 1012.1
20260502050527 49 252 1.0 7.0 0.00 0.00 0.00 67 1012.2
20260502050038 49 0 0.0 4.0 0.00 0.00 0.00 66 1012.0
20260502045527 49 231 0.0 4.0 0.00 0.00 0.00 66 1012.1
20260502045029 49 162 0.0 2.0 0.00 0.00 0.00 66 1012.1
20260502044541 49 0 0.0 2.0 0.00 0.00 0.00 66 1012.1
20260502044027 49 0 0.0 2.0 0.00 0.00 0.00 65 1012.2
20260502043527 49 272 0.0 2.0 0.00 0.00 0.00 65 1012.2
20260502043044 50 252 0.0 2.0 0.00 0.00 0.00 65 1012.3
20260502042528 50 246 0.0 2.0 0.00 0.00 0.00 65 1012.2
20260502042027 50 213 0.0 5.0 0.00 0.00 0.00 65 1012.1
20260502041540 50 213 0.0 5.0 0.00 0.00 0.00 66 1012.2
20260502041025 50 244 0.0 4.0 0.00 0.00 0.00 66 1012.2
20260502040525 50 242 0.0 3.0 0.00 0.00 0.00 66 1012.3
20260502040039 50 232 0.0 3.0 0.00 0.00 0.00 66 1012.3
20260502035527 50 274 1.0 4.0 0.00 0.00 0.00 65 1012.3
20260502035027 50 217 0.0 4.0 0.00 0.00 0.00 66 1012.4
20260502034544 50 0 1.0 4.0 0.00 0.00 0.00 66 1012.4
20260502034026 50 0 0.0 5.0 0.00 0.00 0.00 66 1012.3
20260502033526 50 263 1.0 5.0 0.00 0.00 0.00 66 1012.3
20260502033050 50 0 0.0 3.0 0.00 0.00 0.00 65 1012.4
20260502032527 50 308 1.0 3.0 0.00 0.00 0.00 65 1012.3
20260502032027 50 0 0.0 4.0 0.00 0.00 0.00 65 1012.3
20260502031559 50 261 1.0 4.0 0.00 0.00 0.00 65 1012.3
20260502031028 50 0 1.0 3.0 0.00 0.00 0.00 65 1012.3
20260502030527 50 0 0.0 3.0 0.00 0.00 0.00 65 1012.4
20260502030039 50 0 0.0 4.0 0.00 0.00 0.00 65 1012.3
20260502025525 50 253 1.0 4.0 0.00 0.00 0.00 65 1012.2
20260502025025 51 0 0.0 4.0 0.00 0.00 0.00 64 1012.3
20260502024537 51 0 0.0 4.0 0.00 0.00 0.00 64 1012.2
20260502024028 51 109 1.0 4.0 0.00 0.00 0.00 64 1012.2
20260502023525 51 0 1.0 4.0 0.00 0.00 0.00 64 1012.2
20260502023037 51 227 0.0 3.0 0.00 0.00 0.00 64 1012.1
20260502022528 51 205 0.0 4.0 0.00 0.00 0.00 64 1012.2
20260502022027 51 198 1.0 6.0 0.00 0.00 0.00 64 1012.1
20260502021541 51 360 0.0 6.0 0.00 0.00 0.00 64 1012.2
20260502021028 51 360 1.0 6.0 0.00 0.00 0.00 64 1012.1
20260502020527 51 0 0.0 3.0 0.00 0.00 0.00 63 1012.2
20260502020044 51 360 1.0 3.0 0.00 0.00 0.00 63 1012.2
20260502015525 51 360 1.0 4.0 0.00 0.00 0.00 62 1012.2
20260502015024 51 0 1.0 4.0 0.00 0.00 0.00 62 1012.1
20260502014541 52 0 0.0 3.0 0.00 0.00 0.00 61 1012.2
20260502014025 52 360 1.0 3.0 0.00 0.00 0.00 61 1012.2
20260502013525 52 360 0.0 3.0 0.00 0.00 0.00 60 1012.0